loading
|
Showing default

MIDAS 7/ERS 10, 622

Orbit data source: Space-Track

MIDAS 7/ERS 10, 622 is a payload satellite owned by USAF SSD (US) that was launched on Fri, 19 Jul 1963 UTC via an ATLAS AGENA B launch vehicle from the Air Force Western Test Range (AFWTR). Payloads include a variety of satellites, spacecraft, and rockets equipped with specific instruments for various scientific and technological missions. These include communications satellites like Starlink; space stations such as the ISS; scientific satellites like the Hubble; Earth observation satellites from companies like Planet Labs, Umbra, and HawkEye 360; GPS; miniature CubeSats for education and research; and military/defense satellites.

Loading next visibility...
Loading greatness...
MIDAS 7/ERS 10 details
Identifier
622, 1963-030A
Orbit
Active
Last TLE update10 hours ago
Origin
Flag of USUSAF SSD (US)
ManufacturerLMSC
Mission statusUnknown
MissionDefense Early Warn
Bus & MotorMIDAS, Unknown motor
Mass~1,540 kg wet, ~840 kg dry
Launch date (UTC)
1963-07-19 (61 years ago)
Launch vehicle
ATLAS AGENA B
Launch site
Air Force Western Test Range (AFWTR)
Object type
Payload
Rocket body
Debris
Radar Cross Section10 m², Large (>1 m²)

Expand to show TLE details & history

TLE from 10 hours ago
0 MIDAS 7/ERS 10
1 00622U 63030A   24258.88998351  .00000027  00000-0  12366-1 0  9992
2 00622  88.3893 246.6823 0033137 339.8904  20.0639  8.57932472404864
Epoch: 2024-09-14T21:21Z
Definitive object data (Epoch: 2024-09-14T21:21:34.575Z)
Latitude-0.00007°
Longitude-68.05298°
Altitude3,672.043 km
Speed6.308 km/s
True Right ascension16h 26m 43s
True Declination0° 00' 00"
Sunlit
Object was in daylight at TLE epoch
Predictive object data (real-time)
Latitude24.222°
Longitude111.20244°
Altitude3,736.899 km
Speed6.269 km/s
Apparent Right ascension06h 28m 21s
Apparent Declination0° 24' 05"
Sunlit
Object is in daylight
Predictive observer data (real-time)
Local Sidereal Time23:36:24
Azimuth81.274° E
Elevation-9.662°
Doppler factor1
Orbital elements
Apogee3,732.446 km
Perigee3,665.661 km
Semi-major axis10,077.19 km
Eccentricity0.0033137
Inclination88.3893°
RAAN246.6823°
Arg. of periapsis339.8904°
True anomaly20.19468°
Mean anomaly20.0639°
Eccentric anomaly20.12924°
Mean motion2.14553 °/min
BSTAR0.012366
Period167.79 mins
No data available

MIDAS 7/ERS 10 Visibility forecast

Observer location: 39.9160978°, -105.1181434

MIDAS 7/ERS 10 is not visible in the next 10 days
Span
Click to sort rows by Start time (UTC) header in descending order
Start Az.
Max El. time (UTC)
Max El. Az.
Max El.
End time (UTC)
End Az.